Regional Weather Roundup
Issued by NWS Kansas City/Pleasant Hill, MO

Home | Current Version | Previous Version | Text Only | Print | Product List | Glossary On
Versions: 1 2 3 4 5 6 7 8 9 10 11 12 13 14 15 16 17 18 19 20 21 22 23 24 25 26 27 28 29 30 31 32 33 34 35 36 37 38 39 40 41 42 43 44 45 46 47 48 49 50
000
ASUS43 KEAX 020904
RWREAX

WEATHER ROUNDUP FOR EASTERN KANSAS AND NORTHWEST MISSOURI
NATIONAL WEATHER SERVICE KANSAS CITY/PLEASANT HILL MO
400 AM CDT THU JUL 02 2015

KSZ040-057-103>105-MOZ028-029-037-043-021000-
...KANSAS CITY METROPOLITAN AREA...

CITY           SKY/WX    TMP DP  RH WIND       PRES   REMARKS
K.C. INTL      CLOUDY    73  70  90 NE12      29.85S
K.C. DOWNTOWN  CLOUDY    74  71  91 E8        29.84R
LEES SUMMIT    CLOUDY    72  69  90 E9        29.85S
OLATHE - IXD   MOCLDY    72  70  93 NE6       29.84S
OLATHE - OJC   CLOUDY    71  69  93 NE12      29.83F
LAWRENCE       PTCLDY    73  69  87 E5        29.84R

$$

MOZ001>008-011>017-020>025-030>033-038>040-044>046-053-054-021000-
...NORTHERN AND CENTRAL MISSOURI...

CITY           SKY/WX    TMP DP  RH WIND       PRES   REMARKS
ST. JOSEPH     CLOUDY    72  68  87 NE7       29.87S
MOSBY          CLOUDY    72  68  88 NE6       29.85S
HARRISONVILLE  MOCLDY    72  70  94 NE8       29.84F
WHITEMAN AFB   CLOUDY    71  70  99 E9        29.82F
CLINTON        MOCLDY    72  72 100 E3        29.82F
SEDALIA        CLOUDY    72  69  90 E6        29.84F
WARSAW         CLOUDY    68  68 100 CALM      29.84S FOG
CHILLICOTHE      N/A     71  67  87 VRB5      29.89S
KIRKSVILLE     CLOUDY    67  64  90 NE8       29.90S FOG

$$

MOZ041-047>049-056>058-063>065-088>090-097-021000-
...EASTERN AND SOUTHERN MISSOURI...

CITY           SKY/WX    TMP DP  RH WIND       PRES   REMARKS
ST. LOUIS INTL LGT RAIN  74  69  85 CALM      29.84F
SPIRIT OF STL  CLOUDY    72  71  97 CALM      29.83F
COLUMBIA       MOCLDY    70  69  97 E7        29.83F
JEFFERSON CITY CLOUDY    71  68  90 VRB6      29.82F
MEXICO         CLOUDY   N/A N/A N/A E6        29.85F HAZE
ROLLA          CLOUDY    67  66  97 S6        29.84F
LEBANON        CLOUDY    70  66  88 SW8       29.85S
OSAGE BEACH    CLOUDY    70  66  88 CALM      29.84R
SPRINGFIELD    LGT RAIN  70  67  90 SE13      29.87F
BRANSON        TSTM      68  66  94 NE10G18   29.93R
JOPLIN         CLOUDY    75  69  81 SE5       29.81F
WEST PLAINS    RAIN      69  66  90 S10       29.90F
MALDEN         RAIN      79  73  83 S7        29.83S

$$

IAZ060-094-KSZ022-034>040-054-083-096-NEZ052-066-093-021000-
...KANSAS...SOUTHEAST NEBRASKA AND IOWA...

CITY           SKY/WX    TMP DP  RH WIND       PRES   REMARKS
TOPEKA         CLEAR     73  70  90 NE6       29.84S
MANHATTAN      LGT RAIN  76  71  85 E9        29.85S
EMPORIA        PTCLDY    72  69  90 NE8       29.82S
CHANUTE        CLEAR     73  70  90 E7        29.78F
WICHITA        MOCLDY    76  72  87 E3        29.84R
OMAHA          CLOUDY    66  59  78 E3        29.94R
LINCOLN        CLOUDY    69  65  86 E12       29.92S
FALLS CITY     CLOUDY    70  67  90 E9        29.88S
LAMONI         PTCLDY    64  61  90 NE9       29.91F
DES MOINES     CLEAR     60  55  83 E8        29.94F

$$



USA.gov is the U.S. government's official web portal to all federal, state and local government web resources and services.